Weather History for KPHD - August, 2014

Change the Weather History Date:

Sunday, August 17, 2014

  Actual Average Record
Temperature  
Mean Temperature 72 °F 72 °F  
Max Temperature 80 °F 83 °F 96 °F (1965)
Min Temperature 63 °F 60 °F 44 °F (1976)
Degree Days  
Heating Degree Days 0 0  
Month to date heating degree days 13 0  
Since 1 June heating degree days 42 38  
Since 1 July heating degree days 32 3  
Cooling Degree Days 7 7  
Month to date cooling degree days 58 121  
Year to date cooling degree days 453 541  
Since 1 June cooling degree days 387 498  
Growing Degree Days 22 (Base 50)    
Moisture  
Dew Point 67 °F    
Average Humidity 85    
Maximum Humidity 100    
Minimum Humidity 69    
Precipitation  
Precipitation 0.32 in 0.13 in - ()
Month to date precipitation 2.75 1.76  
Year to date precipitation 27.68 25.12  
Sea Level Pressure  
Sea Level Pressure 29.97 in    
Wind  
Wind Speed 2 mph (SW)    
Max Wind Speed 12 mph    
Max Gust Speed 14 mph    
Visibility 8 miles    
Events Rain    
T = Trace of Precipitation, MM = Missing Value Source: NWS Daily Summary

Daily Weather History Graph

Daily Weather History Graph

Search for Another Location

Airport or City:

Trip Planner

Search our weather history database for the weather conditions in past years. The results will help you decide how hot, cold, wet, or windy it might be!

Date:

Astronomy

Aug. 17, 2014 Rise Set
Actual Time 6:38 AM EDT 8:20 PM EDT
Civil Twilight 6:09 AM EDT 8:49 PM EDT
Nautical Twilight 5:34 AM EDT 9:24 PM EDT
Astronomical Twilight 4:56 AM EDT 10:01 PM EDT
Moon 12:02 AM EDT (8/17) 2:24 PM EDT (8/17)
Length of Visible Light 14h 40m
Length of Day
13h 42m
Waning Gibbous, 48% of the Moon is Illuminated
Aug 17
Waning Gibbous
Aug 25
New
Sep 2
First Quarter
Sep 8
Full
Sep 15
Last Quarter

Hourly Weather History & Observations

Time (EDT) Temp. Heat Index Dew Point Humidity Pressure Visibility Wind Dir Wind Speed Gust Speed Precip Events Conditions
12:26 AM 66.0 °F - 63.0 °F 90% 29.97 in 8.0 mi South 3.5 mph - N/A   Mostly Cloudy
12:49 AM 64.4 °F - 62.6 °F 94% 29.97 in 8.0 mi South 3.5 mph - N/A   Scattered Clouds
12:53 AM 64.9 °F - 62.1 °F 90% 29.96 in 8.0 mi SSW 3.5 mph - N/A   Scattered Clouds
1:53 AM 63.0 °F - 61.0 °F 93% 29.96 in 6.0 mi ESE 3.5 mph - N/A   Scattered Clouds
2:18 AM 64.9 °F - 63.0 °F 93% 29.97 in 6.0 mi Calm Calm - N/A   Overcast
3:53 AM 66.9 °F - 64.9 °F 93% 29.96 in 7.0 mi Calm Calm - N/A   Overcast
4:23 AM 66.9 °F - 64.9 °F 93% 29.97 in 7.0 mi Calm Calm - N/A   Overcast
4:53 AM 66.9 °F - 64.9 °F 93% 29.95 in 8.0 mi Calm Calm - N/A   Overcast
5:53 AM 68.0 °F - 64.9 °F 90% 29.96 in 8.0 mi Calm Calm - N/A   Overcast
6:53 AM 68.0 °F - 66.0 °F 93% 29.97 in 8.0 mi Calm Calm - N/A   Overcast
7:31 AM 68.0 °F - 66.0 °F 93% 29.99 in 7.0 mi Calm Calm - N/A   Overcast
7:53 AM 69.1 °F - 66.0 °F 90% 29.98 in 5.0 mi Calm Calm - N/A   Mostly Cloudy
8:20 AM 69.1 °F - 66.0 °F 90% 30.00 in 7.0 mi West 3.5 mph - N/A   Overcast
8:36 AM 69.1 °F - 66.0 °F 90% 30.00 in 7.0 mi Calm Calm - N/A   Overcast
8:53 AM 69.1 °F - 66.0 °F 90% 29.99 in 7.0 mi West 3.5 mph - N/A   Overcast
9:53 AM 71.1 °F - 66.9 °F 87% 30.00 in 7.0 mi WNW 3.5 mph - N/A   Overcast
10:50 AM 73.4 °F - 68.0 °F 83% 30.01 in 8.0 mi Variable 3.5 mph - N/A   Overcast
10:53 AM 73.9 °F - 68.0 °F 82% 30.00 in 8.0 mi NNW 5.8 mph - N/A   Overcast
11:31 AM 77.0 °F - 68.0 °F 74% 30.00 in 10.0 mi Calm Calm - N/A   Overcast
11:42 AM 75.9 °F - 66.9 °F 74% 30.00 in 10.0 mi Calm Calm - N/A   Overcast
11:53 AM 77.0 °F - 69.1 °F 76% 29.99 in 10.0 mi WNW 4.6 mph - N/A   Mostly Cloudy
12:00 PM 75.9 °F - 68.0 °F 76% 30.00 in 10.0 mi Calm Calm - N/A   Overcast
12:09 PM 77.0 °F - 68.0 °F 74% 30.00 in 10.0 mi NNW 5.8 mph - N/A   Overcast
12:53 PM 77.0 °F - 68.0 °F 74% 29.98 in 10.0 mi Calm Calm - N/A   Overcast
1:53 PM 75.9 °F - 68.0 °F 76% 29.97 in 10.0 mi Variable 4.6 mph - N/A   Overcast
2:12 PM 75.9 °F - 68.0 °F 76% 29.98 in 10.0 mi East 4.6 mph - N/A   Overcast
2:53 PM 80.1 °F 82.9 °F 69.1 °F 69% 29.96 in 10.0 mi South 4.6 mph - N/A   Mostly Cloudy
3:13 PM 79.0 °F - 69.1 °F 72% 29.97 in 10.0 mi Calm Calm - N/A   Mostly Cloudy
3:49 PM 78.8 °F - 69.8 °F 74% 29.96 in 10.0 mi SSE 3.5 mph - N/A   Overcast
3:53 PM 79.0 °F - 69.1 °F 72% 29.95 in 10.0 mi Calm Calm - N/A   Overcast
4:03 PM 78.1 °F - 68.0 °F 71% 29.96 in 10.0 mi SE 3.5 mph - N/A   Overcast
4:23 PM 78.1 °F - 69.1 °F 74% 29.96 in 10.0 mi Calm Calm - N/A   Overcast
4:51 PM 75.2 °F - 69.8 °F 83% 29.96 in 7.0 mi NNE 9.2 mph - 0.01 in Rain Light Rain
4:53 PM 73.9 °F - 69.1 °F 85% 29.95 in 7.0 mi NNE 8.1 mph - 0.01 in Rain Light Rain
6:53 PM 75.0 °F - 70.0 °F 84% 29.93 in 10.0 mi South 3.5 mph - N/A   Scattered Clouds
7:53 PM 73.0 °F - 71.1 °F 93% 29.94 in 8.0 mi Calm Calm - 0.00 in Rain Light Rain
8:53 PM 72.0 °F - 70.0 °F 93% 29.95 in 9.0 mi NW 3.5 mph - 0.00 in Rain Light Rain
9:21 PM 71.1 °F - 69.1 °F 93% 29.98 in 2.5 mi West 6.9 mph - 0.10 in Rain Heavy Rain
9:29 PM 70.0 °F - 69.1 °F 97% 29.98 in 1.2 mi Calm Calm - 0.21 in Rain Heavy Rain
9:42 PM 70.0 °F - 69.1 °F 97% 29.98 in 3.0 mi ENE 3.5 mph - 0.27 in Rain Light Rain
9:53 PM 70.0 °F - 69.1 °F 97% 29.97 in 9.0 mi Calm Calm - 0.27 in Rain Light Rain
10:53 PM 70.0 °F - 68.0 °F 93% 29.96 in 9.0 mi Calm Calm - 0.01 in   Overcast
11:53 PM 69.1 °F - 68.0 °F 96% 29.95 in 7.0 mi Calm Calm - N/A   Overcast